Vorticity
10 10 10 10 9 8 8 6 6 7 5 7 6 8 10 10 13 21 17 -0 11 8 -1 -10 -18 3 0 6 -0 -13 6 10 18 17 2 1 4 3 0 4 8 4 -0 1 -1 -2 -0 2 5 7 7 5 5 4 7 6 6 6 6 6 5 5 4 4 4 5 7 7 6 7 9 8 7 3 2 7 9 8 8 9 8 8 7 7 6 6 6 6 8 7 8 7 7 8 7 6 6
9 9 10 10 9 8 8 8 7 8 7 6 7 9 14 19 19 20 9 4 16 9 6 -2 -2 9 2 19 12 -5 4 -3 3 6 4 6 -1 -1 2 -1 -2 -5 -6 -0 -1 -0 3 5 6 7 6 5 7 7 8 7 7 7 6 6 5 5 3 4 4 7 8 7 6 7 10 9 5 1 5 9 8 6 7 8 8 8 7 7 7 6 7 7 8 7 8 8 8 7 7 7 6
9 10 9 10 10 8 9 9 7 9 9 6 11 15 21 32 20 2 -3 -0 -3 -7 8 6 6 15 11 17 11 6 9 9 13 5 2 7 4 1 4 3 -3 -4 2 6 3 4 5 6 7 7 8 7 9 8 8 8 7 6 6 5 4 4 4 4 5 8 8 6 7 7 11 10 2 -0 9 10 6 6 6 7 7 6 6 7 7 7 7 7 8 8 8 9 9 6 7 7 6
9 10 8 10 9 9 9 7 8 8 8 10 14 23 26 25 15 5 1 -6 -11 -5 6 6 2 7 10 9 6 6 9 22 22 10 5 6 8 6 5 5 1 3 7 6 5 8 7 8 9 8 9 9 9 8 7 7 7 7 5 4 4 4 4 5 6 8 7 6 7 7 10 8 -1 -0 9 9 6 6 6 7 7 6 5 6 5 5 5 6 7 7 9 9 9 7 7 7 6
9 8 9 9 7 9 10 10 11 9 11 16 5 5 21 18 15 9 -2 -1 1 2 6 7 4 6 8 6 11 11 6 11 10 10 11 7 9 7 6 6 5 9 8 7 8 9 8 9 9 10 10 7 7 6 6 6 6 5 4 5 4 4 4 5 7 8 7 6 8 9 8 6 -1 -1 10 8 5 6 7 7 6 5 5 5 4 5 4 4 5 6 9 8 8 8 7 7 7
6 6 9 8 9 8 8 10 8 12 11 24 10 -15 12 13 -2 -4 -10 7 11 4 13 14 10 11 12 9 10 9 5 2 1 6 8 8 7 3 3 4 5 8 8 8 10 8 8 9 7 8 7 5 6 5 5 6 5 4 4 5 5 6 6 7 9 8 8 8 8 9 6 5 -2 -3 9 7 4 6 6 7 6 5 5 5 5 6 6 5 5 5 7 7 7 9 9 8 6
6 6 9 7 10 6 7 9 6 15 4 27 29 -16 10 7 -23 -5 -4 4 8 -0 9 10 7 7 11 15 12 9 7 3 4 3 3 5 2 3 5 9 11 9 10 9 8 9 8 7 7 8 5 3 4 5 6 4 3 4 4 5 6 7 8 9 9 9 9 8 7 6 5 6 -0 -4 6 7 5 6 6 6 5 4 4 4 5 6 7 6 7 6 6 6 7 8 9 9 7
7 6 9 7 9 8 9 10 8 16 6 25 25 -19 3 2 -18 4 1 5 12 4 10 13 10 7 7 9 8 8 7 6 11 7 4 6 5 8 10 14 13 7 9 8 6 7 6 6 7 4 1 2 3 5 3 1 3 5 5 7 9 9 10 10 10 9 6 6 6 4 4 7 3 -4 4 7 4 5 5 5 4 3 4 4 5 6 6 6 6 6 5 5 6 7 9 10 8
7 7 9 8 8 9 8 11 10 14 18 17 2 -7 6 2 7 9 -6 2 6 3 17 25 19 8 3 6 7 8 8 8 7 3 7 13 10 9 8 7 5 4 6 5 3 4 6 5 2 2 5 7 5 3 2 4 7 10 12 12 12 11 10 10 10 7 3 4 4 4 5 8 6 -2 2 7 5 5 5 5 4 3 4 5 6 6 5 5 5 5 5 6 6 6 8 9 9
8 7 7 9 8 11 10 13 11 13 27 14 -3 11 5 -7 14 16 8 12 3 2 11 20 22 15 9 8 9 8 6 6 3 2 6 6 5 7 5 3 5 7 6 3 3 5 7 4 4 10 10 5 3 4 4 6 9 12 12 12 13 10 11 11 7 3 2 4 4 5 4 6 8 0 1 7 7 5 5 5 4 4 5 8 8 8 7 5 5 5 6 7 6 6 8 9 10
8 8 7 9 8 11 12 13 16 16 18 16 5 4 -1 -8 5 16 22 24 12 8 12 11 11 12 14 10 6 7 4 2 6 6 6 4 2 3 1 2 5 5 4 4 5 6 6 7 7 6 1 0 4 5 4 5 7 9 8 10 12 7 7 7 4 4 3 3 4 5 6 11 10 3 4 8 7 6 5 4 4 7 9 10 11 11 11 8 6 6 8 8 7 7 8 9 9
8 9 9 8 9 10 12 12 15 8 -1 18 16 -5 6 5 4 14 11 17 13 9 17 8 3 8 8 9 5 4 8 6 6 3 5 8 2 2 6 7 6 6 6 6 6 6 6 9 9 4 -1 1 5 6 8 10 11 10 9 10 10 7 7 5 7 6 3 3 5 5 9 14 11 9 10 7 6 5 4 4 5 8 9 8 8 9 10 11 11 10 10 9 8 7 8 8 8
9 9 10 8 10 9 11 11 8 7 -1 19 21 -6 5 5 12 26 7 10 11 12 18 -6 0 19 7 7 8 5 10 8 6 8 9 4 0 4 9 9 7 7 7 7 7 6 6 7 9 7 6 8 10 12 13 14 14 11 10 10 7 9 10 6 6 5 3 2 4 10 12 12 14 14 10 7 7 5 4 4 3 5 3 2 3 4 5 7 10 12 12 10 8 8 8 9 9
9 8 8 7 9 8 11 7 -2 8 4 5 8 -4 1 2 11 25 12 10 9 19 24 0 8 20 6 7 11 7 5 5 7 10 6 -0 3 7 8 8 7 8 7 7 6 6 7 7 10 8 9 13 11 11 12 12 15 13 11 11 9 12 13 9 7 8 10 8 7 9 12 19 21 11 5 6 7 6 4 2 1 2 2 3 4 3 2 3 6 10 13 10 6 6 7 9 9
10 8 7 6 8 7 10 9 -2 2 8 7 7 3 5 3 4 13 12 13 14 14 7 9 24 20 11 9 8 9 4 6 11 5 1 4 8 9 7 7 6 7 6 6 6 7 6 6 8 7 7 11 9 10 11 11 13 12 13 14 13 14 15 13 8 4 8 13 7 1 13 27 15 -1 2 8 9 7 3 1 1 3 6 9 11 8 5 4 5 7 11 11 4 1 3 7 9
10 8 8 8 10 11 10 10 8 0 -1 12 11 1 2 -1 1 8 9 13 16 7 -6 -2 12 13 15 12 4 7 8 10 9 2 3 8 7 5 6 8 6 5 4 4 5 5 4 4 7 5 6 10 10 9 12 14 14 12 13 12 13 15 16 15 12 9 7 5 2 13 28 19 -2 -4 9 12 9 5 1 3 5 8 11 11 11 10 10 9 9 9 11 12 7 2 1 4 8
8 7 9 11 12 17 16 3 12 12 -3 14 15 -2 4 5 11 20 18 15 3 -3 3 2 0 3 5 11 12 9 10 10 6 3 5 5 3 4 6 7 5 2 4 5 4 6 6 6 7 6 9 11 8 11 16 15 12 11 10 7 9 13 13 11 14 19 21 19 24 33 23 0 -3 9 13 11 6 3 4 7 9 11 11 9 9 9 9 9 10 9 10 11 10 8 5 5 6
8 9 9 12 12 12 14 -2 5 17 -0 7 10 -2 9 8 10 29 33 20 -1 -7 3 4 8 16 10 7 10 7 5 6 6 4 2 4 4 5 5 4 4 3 6 8 6 7 7 6 6 10 12 10 9 15 15 10 8 10 11 13 14 11 7 7 6 10 18 25 27 18 2 -0 8 11 8 5 3 4 7 6 8 9 6 6 8 9 9 7 8 8 8 9 9 10 9 8 7
8 11 9 10 15 11 4 -6 -2 15 4 -3 0 1 10 5 -6 4 23 18 1 -1 2 4 7 12 14 4 2 5 2 2 7 6 2 5 7 4 4 3 4 5 7 8 6 6 8 6 7 11 8 7 11 11 10 8 6 10 16 14 11 11 14 15 10 10 14 12 9 4 3 7 7 6 5 1 2 5 5 4 6 7 7 9 8 7 9 9 8 7 7 8 9 10 10 10 8
6 7 10 9 18 12 -5 -8 0 10 8 -2 -5 4 18 24 13 -2 11 17 4 5 6 11 9 0 5 4 2 5 3 3 5 6 5 6 6 3 4 4 5 7 8 8 8 10 8 5 8 9 6 8 8 11 15 8 5 16 15 5 8 16 15 9 6 12 16 10 8 8 6 8 8 8 4 1 6 7 6 8 8 6 9 15 16 13 11 10 11 11 11 10 10 10 11 12 9
7 4 11 14 21 9 -10 4 15 5 -1 -4 -9 3 21 22 15 3 6 10 5 10 7 10 16 9 8 7 4 1 0 4 5 7 7 5 4 4 6 6 7 7 9 8 9 12 5 5 11 8 6 6 7 20 18 -0 7 15 0 1 13 12 4 1 5 11 14 11 7 3 6 14 14 9 5 1 3 4 6 12 14 13 12 13 13 13 10 10 14 14 12 11 11 11 11 13 12
10 8 11 14 14 -9 -19 9 19 6 -3 2 0 -2 7 3 3 9 9 9 7 9 8 10 14 12 11 9 11 11 5 6 8 6 5 5 4 5 7 6 6 6 9 8 8 11 6 8 14 10 11 13 22 25 2 -7 12 8 -4 11 14 4 3 5 8 9 8 8 3 2 9 11 -1 -4 1 0 4 8 9 14 14 13 14 15 13 11 10 10 15 15 12 12 11 11 12 12 13
10 10 11 13 12 -13 -17 4 4 6 8 13 19 4 -2 3 10 17 11 8 9 8 8 8 7 7 8 7 15 15 4 5 11 8 5 6 5 6 6 5 5 4 8 9 8 10 3 1 6 9 14 15 13 -1 -9 9 17 3 3 14 11 7 7 5 7 6 8 11 8 7 9 6 -2 -1 1 2 12 14 13 17 15 12 12 14 13 12 12 11 14 13 10 12 11 10 10 8 11
7 9 11 9 11 -1 -6 2 -7 2 14 15 23 15 9 13 12 18 19 14 13 9 7 9 5 5 9 10 15 9 -2 3 9 7 4 4 5 6 4 5 6 4 7 8 8 9 4 3 5 7 11 7 0 -1 11 15 -0 1 12 11 9 7 2 4 7 5 8 9 7 8 8 9 11 13 12 10 13 13 12 13 13 14 9 8 12 14 13 15 18 8 7 15 11 7 8 7 10
6 6 10 7 9 6 0 6 1 1 10 13 15 12 11 13 10 11 14 13 15 8 2 11 7 1 5 4 7 6 0 5 7 2 1 4 7 7 4 5 7 7 6 6 7 9 6 6 7 7 8 7 9 15 16 1 -5 11 12 4 3 1 4 11 8 3 5 3 4 9 9 11 13 15 16 12 10 10 9 9 10 10 6 9 17 17 11 17 23 9 12 22 7 3 13 13 12
8 4 8 9 8 6 -3 2 9 6 7 10 13 12 6 5 6 5 1 -4 5 11 2 6 10 6 5 -2 -2 5 5 6 5 2 3 8 9 6 6 7 8 8 7 6 8 8 5 3 6 9 9 11 14 13 9 7 14 16 7 6 7 7 10 8 5 6 8 10 10 8 9 12 14 13 12 11 9 9 9 9 8 6 8 12 16 17 11 15 22 12 16 24 9 3 10 11 16
6 5 6 7 7 6 -1 1 9 8 6 9 11 11 6 4 3 7 13 3 1 18 12 -1 3 5 7 2 -3 5 10 7 3 6 9 8 7 6 7 7 7 8 8 8 8 6 7 9 10 10 11 14 13 11 12 14 11 7 7 9 9 8 7 4 5 5 6 11 11 9 11 13 13 11 10 10 8 7 9 9 6 4 7 12 14 12 10 15 20 18 16 13 8 6 6 8 16
4 6 8 7 5 4 4 4 8 7 5 8 10 9 6 5 4 2 10 7 -7 -1 7 4 -1 -4 -0 3 2 5 6 3 3 9 9 5 7 8 6 7 8 8 7 8 7 4 6 11 10 13 19 17 12 11 10 7 5 8 10 9 8 4 5 10 9 10 14 14 11 12 15 13 10 9 8 8 6 5 6 7 7 5 4 10 15 11 13 16 15 22 14 -3 0 7 10 10 10
5 6 8 9 6 5 5 4 8 9 3 6 8 8 6 4 8 6 4 10 4 -5 2 7 3 1 2 1 3 3 2 5 8 7 5 5 7 6 6 8 7 6 7 7 7 7 8 8 3 8 13 3 3 9 8 6 7 9 10 10 8 3 9 15 9 14 19 13 9 9 9 10 8 6 8 7 5 5 5 6 5 6 6 8 12 13 15 12 7 16 5 -10 2 8 6 10 11
7 6 5 7 7 7 5 5 9 8 4 6 7 8 10 6 8 10 6 10 13 11 12 9 7 11 9 3 1 1 1 6 9 6 4 6 7 6 7 8 7 7 8 7 9 11 9 7 3 6 6 -1 -1 2 4 8 9 10 9 3 -1 -0 11 16 10 10 11 8 9 8 6 7 7 6 6 7 6 7 7 7 5 6 8 6 10 12 9 6 6 8 2 -3 7 9 6 9 12
7 9 8 8 10 8 6 7 8 8 6 5 7 8 8 8 9 11 10 2 -2 7 17 12 9 8 4 5 6 5 4 1 5 11 9 8 9 8 7 8 8 8 7 6 9 9 4 8 11 9 12 13 9 3 2 4 5 7 6 8 13 12 14 17 10 5 9 10 8 9 7 5 8 6 4 7 7 7 8 7 6 7 7 5 9 9 7 9 8 7 12 8 2 10 13 9 9
7 9 10 9 8 8 8 8 7 9 6 4 8 8 6 9 8 8 10 6 2 5 12 13 11 8 3 5 5 3 4 3 5 10 9 10 10 8 8 9 7 7 9 6 6 7 5 6 6 6 11 13 13 13 10 7 8 12 9 8 13 12 10 7 3 3 8 10 6 8 6 5 8 5 4 8 6 6 8 7 7 9 6 5 8 7 8 11 9 8 13 2 -8 8 14 6 11
9 9 9 9 9 8 8 9 13 12 7 7 6 6 10 8 8 13 5 4 12 10 7 9 10 7 3 4 1 -0 9 13 9 8 10 10 7 8 8 7 8 9 8 5 6 11 9 7 4 8 14 10 12 18 13 9 8 11 14 9 6 9 7 -2 -2 3 5 5 6 6 4 3 4 4 6 6 6 8 9 8 8 10 8 4 7 7 6 10 12 8 7 2 -3 7 10 2 10
8 10 8 9 10 9 11 13 14 11 14 21 13 8 9 5 15 18 -4 -8 12 18 9 7 15 9 -4 1 1 1 15 15 8 8 10 7 6 9 9 8 11 9 6 10 16 13 8 8 -1 4 19 14 12 14 8 5 4 6 14 14 8 6 3 -1 1 2 2 4 5 6 5 2 1 2 5 4 6 10 9 9 7 10 11 7 7 6 5 7 11 7 5 10 5 5 10 4 5
8 14 14 13 11 9 13 17 11 4 9 16 18 16 9 13 18 6 5 15 15 19 14 4 18 20 -1 -0 5 3 9 4 2 9 8 6 6 7 9 9 9 8 8 12 13 6 7 10 -4 -2 20 21 15 10 -1 0 8 10 11 9 5 2 1 2 3 2 5 7 5 7 6 5 4 2 3 4 6 7 7 10 8 8 10 10 9 6 5 7 13 11 2 8 8 3 8 5 3
14 17 22 21 17 14 13 13 7 4 1 -7 9 24 15 20 5 -15 21 34 3 10 20 -2 -2 10 5 3 4 1 5 1 1 9 7 5 6 6 9 7 6 8 10 10 9 8 14 16 6 8 19 19 12 2 2 16 19 7 1 5 6 4 4 2 2 4 7 8 6 7 7 7 7 4 4 4 5 6 8 11 9 7 7 7 8 5 5 9 15 13 3 8 11 3 6 7 5
8 5 13 16 15 20 21 15 1 2 8 -6 11 32 17 16 -2 -23 14 22 -9 -2 13 3 -6 0 7 6 2 -0 4 5 4 9 8 5 4 5 7 3 6 9 8 10 8 7 12 10 8 15 19 16 11 3 4 9 5 -1 1 9 7 3 6 6 5 7 6 8 7 7 7 8 7 6 6 4 4 7 9 11 9 9 9 7 9 6 4 9 12 9 5 10 9 3 7 8 4
2 -8 -1 8 14 20 18 18 4 -3 14 8 16 35 16 10 7 -8 2 4 5 14 6 2 3 4 6 4 0 0 4 5 5 8 8 6 5 5 6 -0 2 11 13 12 7 5 10 7 2 7 8 5 11 20 18 6 -0 7 6 1 1 1 7 9 5 5 6 7 6 6 6 8 8 7 7 6 7 7 8 10 9 9 10 8 10 8 5 10 11 7 7 12 10 4 8 9 4
12 -2 -7 3 17 20 9 20 19 -5 6 12 9 27 21 9 5 -2 -5 -10 14 40 14 -6 2 5 4 3 -1 1 7 4 2 7 8 8 6 5 8 3 2 12 12 8 11 14 13 12 8 5 0 -4 -3 -3 -0 5 2 -1 -3 -5 -2 0 1 2 2 5 7 7 7 8 8 8 9 8 8 9 9 7 5 7 8 8 8 8 9 10 10 11 9 6 9 14 9 2 9 11 4
14 9 -8 -15 1 19 9 14 22 -3 0 12 -7 2 26 26 9 -2 -2 -11 -5 11 1 -3 8 3 2 7 1 -1 4 3 4 5 2 6 8 8 12 9 5 8 9 10 17 17 11 15 16 6 0 2 1 -16 -22 -3 -3 -13 -5 -1 -3 -1 -0 1 5 6 6 8 10 10 11 11 12 11 8 7 6 6 4 4 6 8 8 7 6 9 11 9 7 6 7 9 4 2 12 12 2
16 22 5 -10 -2 18 14 3 11 5 -0 4 -15 -22 -2 19 21 9 10 8 -8 -8 8 21 16 5 8 6 -3 -1 2 7 12 3 1 11 10 7 7 5 4 4 9 17 22 18 11 14 14 7 4 4 9 1 -12 -0 7 -2 -4 -2 -4 -1 3 5 7 7 6 8 10 9 10 10 10 10 8 7 6 4 3 2 3 5 7 7 5 8 10 7 5 4 3 5 6 6 14 13 2
16 19 14 19 9 -2 10 11 11 17 10 6 12 13 -3 -5 12 7 8 27 12 -12 -5 3 -3 2 13 5 0 7 3 9 15 3 6 13 8 6 5 6 14 12 8 10 11 10 8 10 11 10 11 8 9 7 -4 -1 13 4 -14 -11 -0 1 5 9 8 9 10 10 10 10 10 9 7 7 7 8 9 7 6 5 4 5 6 7 6 6 7 8 6 5 5 8 9 7 12 13 4
13 13 11 26 9 -16 5 13 2 13 21 11 19 42 28 4 10 -3 -16 14 27 0 -17 -10 -2 4 10 9 7 7 4 12 14 4 2 6 12 17 11 8 11 7 4 5 9 13 11 12 18 23 23 12 4 8 10 3 3 6 -4 -8 1 1 3 9 9 11 12 12 12 10 8 7 5 5 6 7 9 11 11 11 9 8 8 9 9 6 5 7 6 7 7 8 9 6 6 7 3
13 16 15 22 15 5 9 4 -3 3 10 1 -4 19 28 9 15 19 6 14 27 23 13 11 9 5 7 6 1 3 9 15 12 5 2 9 17 11 2 8 9 5 9 13 14 14 14 14 20 32 36 23 8 12 21 1 -15 6 18 5 1 3 4 6 9 11 11 10 10 9 8 7 5 4 4 4 5 7 8 11 12 10 10 9 10 9 6 5 5 7 6 6 8 7 6 6 6
16 14 11 22 26 19 0 -10 11 16 3 6 0 5 20 10 3 14 23 20 5 4 18 19 8 5 9 6 3 6 12 19 15 4 3 17 23 5 -3 10 14 11 11 12 8 1 4 12 11 13 19 19 10 8 12 2 2 24 22 1 1 11 11 9 10 8 8 9 8 9 9 8 8 6 4 2 2 2 1 3 7 8 10 9 8 9 8 8 7 6 7 7 7 9 11 10 9
27 18 -0 15 29 25 -2 -27 -0 22 12 15 12 6 19 24 10 -5 -5 3 -4 -5 15 23 15 10 6 5 11 12 10 14 10 2 11 25 17 -3 0 14 15 11 8 11 10 3 5 11 10 6 5 11 15 12 7 5 14 11 -15 -17 9 22 15 10 10 9 8 8 8 9 9 9 10 8 6 3 2 2 -0 -1 1 2 4 5 5 5 6 8 8 8 9 9 8 9 11 10 9
24 12 -5 8 22 32 18 -26 -24 13 19 11 8 5 9 15 17 7 2 9 10 9 16 19 17 14 9 10 18 18 10 9 12 18 27 23 2 -2 20 25 8 4 10 9 4 4 10 8 6 8 8 12 20 26 28 26 19 -11 -30 -3 26 23 11 9 12 11 9 9 9 9 7 7 9 8 8 6 4 5 3 1 2 2 3 3 2 1 1 3 6 8 9 9 10 10 10 9 9
8 -7 -2 6 9 25 33 4 -12 4 10 9 14 9 5 9 8 6 15 20 13 10 16 22 20 13 12 17 17 12 7 11 23 24 13 7 2 6 17 9 -4 2 8 6 4 5 10 9 8 9 12 17 19 22 25 23 12 -8 -5 22 28 16 11 10 12 12 10 10 9 9 9 8 9 9 8 8 7 6 6 6 5 5 6 6 4 1 1 2 3 5 7 9 10 11 10 10 10
6 -4 9 7 5 16 22 14 6 4 -4 -1 14 11 7 15 12 5 10 12 8 6 4 9 16 10 8 11 6 5 11 17 24 16 5 12 15 5 -3 -5 5 14 7 8 19 14 7 8 7 0 3 12 14 14 16 17 14 14 24 28 19 14 13 9 10 11 9 8 8 7 7 8 8 7 8 8 10 11 12 12 12 12 12 12 11 8 6 6 6 4 5 7 9 10 11 11 10
8 8 17 4 2 17 16 6 7 17 13 3 8 12 10 12 12 9 1 -4 10 18 -1 -10 4 11 10 9 4 4 11 15 15 12 11 14 12 7 6 8 10 6 1 9 18 14 6 6 5 -0 5 11 9 7 12 19 21 23 30 23 13 12 9 7 9 8 6 6 5 6 7 9 9 9 10 11 12 12 11 12 13 15 16 16 15 13 11 9 8 8 6 6 9 10 11 11 10
11 12 18 2 -2 12 17 11 7 12 19 14 9 11 11 7 8 13 3 -7 7 20 8 -7 -4 5 7 7 7 6 8 13 14 13 16 11 5 6 13 21 16 2 4 12 13 11 7 3 3 3 5 6 4 4 8 15 20 22 26 19 11 10 6 5 7 4 4 5 5 6 7 7 8 10 12 11 10 7 6 10 14 14 13 13 11 7 6 6 5 8 8 6 7 9 10 10 10
14 12 12 4 4 9 7 9 10 6 10 14 7 7 11 7 4 14 17 7 0 5 13 9 -1 1 3 5 14 15 9 10 11 13 14 6 1 1 7 25 25 1 -2 9 13 11 6 6 8 6 8 7 4 4 5 12 21 21 12 1 1 8 7 5 5 3 4 5 7 8 6 6 7 9 8 6 7 8 6 8 16 23 17 6 4 1 -0 3 4 7 9 8 6 6 8 9 9
10 14 12 6 8 10 5 5 11 9 5 9 12 14 16 11 2 -0 5 11 5 -1 4 4 1 4 3 2 9 13 8 6 9 13 10 7 13 11 9 22 24 6 -1 4 8 8 5 7 8 5 9 10 5 5 5 8 12 8 -1 -3 4 12 8 3 3 5 6 5 6 8 7 7 7 6 4 4 7 11 11 8 13 30 29 11 3 2 3 7 8 7 8 8 7 6 7 7 7
8 13 15 11 9 8 5 5 14 19 7 1 10 16 15 15 13 4 1 11 14 8 3 1 4 7 4 2 0 0 4 5 6 4 -2 5 15 11 7 13 16 17 14 3 1 7 7 8 9 5 2 3 5 7 7 7 6 4 5 10 14 16 14 8 3 5 7 7 9 9 6 4 3 3 3 6 8 8 12 12 10 23 34 23 8 3 3 6 7 6 5 6 8 8 8 9 8
-3 7 16 12 8 6 6 4 5 15 16 4 -1 5 12 13 14 14 10 10 10 6 7 10 10 7 4 4 3 3 7 7 7 11 13 14 5 0 11 11 3 7 6 -6 -4 5 4 4 6 4 1 4 7 4 4 7 7 4 7 8 7 10 18 17 10 10 9 8 10 7 4 2 1 3 6 6 5 4 7 12 10 14 25 26 17 6 1 4 8 7 5 7 8 8 9 9 9
-11 3 12 14 14 2 1 11 6 3 15 19 8 3 9 7 5 10 11 13 16 12 14 16 13 12 10 7 7 8 6 2 5 14 18 15 1 -4 1 -6 -11 -2 -3 -6 1 4 2 3 3 5 5 6 6 4 7 11 7 5 9 9 2 5 21 26 18 11 8 7 8 4 2 2 1 5 9 4 2 5 6 7 9 12 16 20 20 15 11 10 11 9 7 9 11 10 10 9 8
4 15 2 1 21 11 -3 9 14 3 0 12 15 5 4 5 3 6 5 6 9 8 12 15 11 13 13 10 13 14 10 12 17 11 -8 -15 -9 -4 -4 -9 -6 2 1 0 5 5 4 4 3 7 9 7 8 8 10 10 4 3 8 8 1 5 25 34 21 7 -0 -0 3 2 2 3 3 6 8 4 2 5 7 6 8 12 16 18 18 18 18 16 14 11 8 8 8 9 9 9 9
3 22 10 -7 4 13 7 4 13 13 -2 -1 13 9 5 7 4 4 7 6 1 -2 2 6 8 10 6 3 7 9 10 10 11 5 -9 -12 -3 0 2 4 3 3 3 2 3 4 7 7 6 9 10 10 11 8 5 3 3 8 12 11 5 3 12 20 15 8 5 5 6 5 4 4 4 6 5 3 3 4 7 9 9 10 13 15 16 16 16 16 13 10 7 5 5 5 6 6 7
Height
5831 5831 5832 5832 5833 5833 5833 5834 5834 5835 5836 5837 5839 5840 5841 5844 5845 5846 5847 5846 5844 5842 5843 5844 5844 5844 5843 5846 5845 5844 5846 5846 5848 5847 5844 5843 5842 5843 5845 5847 5847 5847 5848 5848 5848 5848 5848 5848 5848 5847 5847 5847 5847 5847 5847 5847 5846 5846 5845 5845 5844 5843 5842 5842 5842 5841 5841 5840 5839 5839 5839 5839 5839 5839 5838 5838 5837 5837 5837 5836 5836 5835 5835 5835 5834 5834 5834 5834 5834 5833 5833 5833 5833 5832 5832 5832 5833
5828 5828 5829 5829 5830 5830 5830 5832 5832 5832 5834 5835 5837 5838 5840 5841 5843 5846 5844 5843 5840 5837 5841 5841 5839 5841 5842 5845 5844 5842 5844 5844 5845 5844 5842 5841 5841 5841 5844 5846 5845 5845 5846 5846 5846 5847 5847 5846 5846 5846 5845 5846 5846 5846 5845 5845 5845 5844 5844 5843 5842 5841 5841 5840 5840 5839 5839 5838 5838 5838 5837 5837 5837 5838 5837 5836 5836 5835 5835 5835 5835 5834 5834 5833 5833 5833 5833 5833 5833 5832 5832 5832 5832 5832 5832 5832 5832
5825 5825 5826 5826 5827 5827 5828 5829 5830 5830 5831 5833 5835 5836 5838 5839 5840 5842 5841 5840 5836 5832 5836 5836 5837 5842 5842 5842 5841 5839 5839 5841 5842 5841 5840 5839 5839 5840 5843 5845 5843 5843 5844 5844 5845 5845 5845 5844 5844 5844 5844 5844 5844 5844 5844 5844 5843 5843 5842 5841 5840 5839 5839 5838 5838 5838 5837 5837 5836 5836 5836 5836 5836 5836 5836 5835 5835 5834 5834 5834 5833 5833 5833 5832 5832 5832 5832 5832 5832 5832 5832 5831 5831 5831 5831 5831 5832
5822 5823 5823 5824 5824 5825 5825 5826 5827 5828 5829 5831 5833 5835 5837 5838 5838 5838 5836 5833 5830 5830 5832 5833 5836 5839 5839 5837 5836 5837 5837 5839 5839 5837 5838 5837 5838 5839 5842 5843 5841 5842 5842 5843 5843 5843 5843 5843 5843 5843 5843 5843 5842 5842 5842 5842 5841 5841 5840 5839 5838 5838 5837 5837 5836 5836 5835 5835 5834 5834 5834 5834 5834 5835 5835 5835 5834 5833 5833 5832 5832 5832 5831 5831 5831 5832 5832 5831 5831 5831 5831 5831 5830 5830 5830 5831 5831
5819 5819 5820 5821 5821 5822 5823 5824 5825 5826 5828 5830 5833 5837 5838 5837 5837 5832 5828 5827 5828 5830 5830 5832 5835 5833 5835 5834 5834 5835 5836 5836 5835 5834 5835 5835 5837 5838 5840 5841 5840 5841 5841 5841 5841 5841 5841 5841 5841 5841 5841 5841 5840 5840 5840 5840 5839 5839 5838 5838 5837 5836 5835 5835 5835 5834 5834 5833 5833 5833 5833 5833 5833 5834 5834 5834 5833 5832 5832 5831 5831 5831 5831 5831 5831 5831 5831 5831 5830 5830 5830 5830 5830 5829 5830 5830 5830
5816 5816 5817 5818 5818 5820 5820 5821 5822 5824 5826 5828 5829 5832 5835 5833 5830 5825 5822 5825 5825 5826 5830 5832 5832 5829 5831 5832 5832 5833 5833 5833 5832 5832 5833 5834 5836 5837 5839 5839 5839 5839 5839 5840 5839 5839 5839 5839 5839 5839 5839 5838 5838 5838 5838 5837 5837 5837 5836 5836 5835 5834 5834 5833 5833 5833 5832 5831 5831 5832 5832 5832 5832 5833 5833 5832 5832 5831 5831 5831 5830 5830 5830 5830 5830 5830 5830 5830 5829 5830 5830 5829 5829 5829 5829 5829 5830
5813 5813 5814 5815 5816 5817 5818 5818 5820 5821 5824 5825 5826 5826 5829 5827 5822 5820 5820 5823 5822 5825 5830 5830 5829 5826 5828 5830 5829 5829 5830 5831 5831 5831 5831 5832 5833 5835 5838 5838 5838 5838 5837 5838 5837 5837 5837 5837 5836 5836 5836 5836 5836 5836 5836 5835 5835 5835 5834 5834 5834 5833 5832 5831 5831 5831 5830 5830 5830 5830 5830 5830 5831 5831 5832 5831 5831 5830 5830 5830 5830 5829 5829 5829 5829 5829 5829 5829 5829 5829 5829 5829 5828 5828 5828 5828 5829
5810 5811 5811 5812 5813 5814 5815 5816 5818 5819 5820 5823 5826 5825 5823 5821 5819 5819 5820 5821 5822 5825 5827 5826 5827 5824 5826 5828 5827 5828 5828 5828 5829 5829 5830 5830 5831 5833 5836 5836 5835 5835 5835 5835 5835 5835 5835 5835 5834 5834 5834 5834 5834 5833 5833 5833 5833 5833 5833 5832 5832 5831 5830 5829 5829 5829 5828 5828 5828 5828 5828 5829 5829 5830 5830 5830 5830 5830 5830 5830 5830 5829 5828 5828 5828 5827 5828 5827 5828 5828 5828 5828 5827 5827 5827 5828 5828
5807 5808 5809 5810 5810 5812 5813 5814 5815 5816 5817 5820 5824 5823 5819 5818 5819 5818 5818 5821 5823 5824 5823 5824 5824 5822 5824 5826 5825 5826 5826 5826 5825 5827 5829 5828 5829 5832 5833 5833 5832 5833 5833 5832 5833 5833 5833 5833 5833 5833 5832 5832 5831 5831 5831 5831 5831 5830 5830 5830 5829 5829 5828 5828 5827 5827 5826 5826 5826 5826 5826 5827 5828 5828 5829 5829 5829 5829 5829 5829 5829 5828 5827 5827 5826 5826 5826 5826 5826 5826 5827 5827 5827 5826 5826 5827 5827
5804 5805 5806 5807 5808 5809 5811 5812 5813 5815 5815 5816 5820 5820 5816 5815 5816 5817 5819 5822 5823 5823 5822 5821 5820 5820 5824 5824 5824 5824 5824 5823 5823 5827 5827 5826 5828 5830 5830 5830 5830 5831 5831 5830 5830 5831 5831 5831 5831 5831 5830 5829 5829 5829 5829 5829 5828 5828 5828 5828 5827 5826 5826 5826 5825 5825 5824 5824 5824 5824 5825 5825 5825 5826 5826 5827 5828 5828 5828 5828 5827 5827 5826 5826 5825 5825 5825 5825 5825 5825 5826 5826 5825 5825 5825 5826 5826
5801 5802 5803 5804 5806 5807 5808 5810 5811 5813 5814 5815 5818 5815 5812 5812 5813 5817 5820 5820 5820 5820 5821 5819 5817 5820 5823 5822 5821 5821 5821 5820 5823 5826 5825 5824 5825 5826 5827 5827 5828 5829 5829 5828 5828 5829 5829 5829 5828 5828 5828 5827 5827 5827 5827 5826 5826 5826 5826 5825 5825 5824 5824 5824 5823 5822 5822 5822 5823 5823 5822 5822 5823 5823 5824 5825 5826 5826 5826 5826 5826 5826 5825 5824 5824 5824 5823 5823 5823 5824 5824 5824 5824 5824 5824 5825 5825
5798 5799 5801 5802 5803 5805 5806 5808 5809 5812 5814 5815 5816 5811 5809 5810 5810 5816 5817 5816 5817 5818 5819 5817 5815 5819 5820 5819 5819 5819 5819 5819 5822 5825 5823 5822 5823 5824 5825 5825 5826 5826 5826 5826 5826 5827 5827 5826 5826 5826 5826 5825 5825 5824 5824 5824 5824 5824 5823 5822 5822 5822 5822 5821 5821 5820 5820 5821 5821 5821 5820 5820 5821 5821 5821 5823 5824 5825 5824 5824 5824 5824 5823 5823 5822 5822 5822 5822 5822 5822 5822 5823 5823 5823 5823 5823 5824
5795 5796 5798 5799 5801 5802 5804 5805 5808 5812 5814 5816 5813 5808 5807 5805 5809 5814 5812 5813 5815 5816 5818 5813 5813 5818 5817 5818 5817 5816 5817 5817 5821 5822 5821 5821 5821 5822 5823 5823 5824 5824 5824 5824 5824 5825 5824 5825 5824 5824 5823 5822 5822 5821 5821 5821 5821 5821 5820 5820 5820 5820 5819 5819 5819 5819 5819 5819 5819 5818 5818 5818 5818 5817 5819 5821 5822 5822 5822 5822 5822 5822 5822 5821 5821 5820 5820 5820 5820 5820 5820 5821 5821 5822 5822 5822 5823
5792 5793 5795 5796 5798 5800 5801 5803 5806 5810 5814 5813 5807 5805 5804 5802 5807 5810 5809 5811 5813 5815 5816 5810 5811 5816 5815 5816 5815 5815 5815 5816 5819 5820 5819 5820 5820 5821 5821 5822 5823 5823 5823 5823 5823 5823 5823 5822 5822 5821 5820 5819 5818 5818 5818 5819 5819 5819 5818 5818 5818 5817 5816 5816 5816 5816 5817 5816 5816 5816 5816 5816 5815 5816 5818 5819 5819 5820 5820 5820 5820 5820 5820 5819 5819 5818 5818 5818 5818 5818 5818 5819 5820 5820 5821 5821 5822
5789 5790 5792 5794 5795 5797 5799 5801 5804 5808 5812 5809 5805 5804 5801 5800 5804 5807 5809 5810 5811 5814 5812 5807 5810 5812 5812 5813 5812 5813 5813 5814 5818 5818 5817 5818 5819 5819 5819 5820 5821 5821 5821 5820 5820 5820 5820 5819 5818 5817 5816 5815 5815 5816 5816 5817 5817 5817 5817 5816 5816 5815 5814 5814 5814 5814 5814 5814 5814 5813 5813 5813 5814 5816 5817 5817 5817 5818 5818 5818 5818 5818 5818 5817 5817 5817 5817 5817 5817 5816 5816 5817 5817 5818 5819 5820 5820
5786 5787 5789 5791 5793 5795 5797 5800 5803 5805 5808 5804 5802 5803 5797 5798 5802 5805 5807 5807 5810 5811 5807 5806 5808 5808 5809 5810 5811 5812 5811 5812 5816 5816 5815 5816 5817 5818 5818 5819 5819 5819 5818 5818 5817 5817 5817 5816 5815 5814 5813 5812 5812 5813 5814 5815 5815 5815 5815 5814 5814 5813 5813 5812 5812 5811 5811 5811 5811 5811 5811 5812 5814 5815 5815 5815 5815 5816 5817 5817 5816 5816 5815 5815 5815 5816 5816 5816 5815 5815 5815 5815 5815 5816 5817 5818 5819
5783 5785 5786 5789 5791 5794 5796 5800 5803 5805 5807 5802 5799 5798 5795 5798 5801 5801 5804 5805 5808 5806 5802 5804 5806 5806 5807 5808 5809 5810 5810 5810 5813 5815 5813 5813 5815 5816 5816 5816 5817 5817 5815 5815 5815 5815 5815 5813 5812 5811 5809 5810 5811 5812 5812 5813 5813 5813 5813 5812 5811 5810 5810 5810 5809 5808 5808 5808 5809 5809 5810 5811 5812 5812 5813 5813 5813 5814 5815 5815 5814 5813 5813 5813 5814 5814 5814 5814 5814 5814 5814 5814 5814 5814 5815 5816 5817
5780 5782 5784 5787 5789 5792 5794 5799 5802 5804 5805 5798 5792 5791 5794 5800 5800 5798 5801 5803 5804 5801 5799 5801 5804 5805 5806 5807 5807 5808 5809 5809 5811 5813 5812 5811 5813 5814 5814 5814 5815 5815 5813 5813 5813 5813 5812 5811 5810 5807 5806 5808 5809 5810 5810 5810 5810 5811 5810 5810 5809 5808 5808 5808 5807 5806 5805 5807 5808 5809 5809 5810 5809 5810 5810 5811 5812 5813 5813 5812 5811 5811 5810 5811 5812 5812 5812 5812 5812 5812 5812 5812 5812 5813 5813 5814 5815
5778 5779 5782 5785 5787 5789 5793 5798 5801 5799 5797 5792 5788 5788 5793 5799 5798 5797 5799 5800 5800 5799 5798 5800 5803 5804 5804 5805 5805 5805 5807 5808 5809 5810 5810 5810 5811 5812 5811 5812 5813 5812 5811 5811 5811 5810 5809 5809 5807 5804 5805 5806 5807 5808 5808 5808 5808 5808 5808 5807 5807 5807 5806 5806 5806 5804 5804 5807 5808 5808 5808 5808 5807 5808 5809 5810 5811 5811 5811 5811 5810 5809 5809 5809 5809 5809 5810 5810 5810 5810 5810 5810 5810 5811 5811 5812 5812
5775 5777 5779 5782 5785 5787 5790 5793 5794 5791 5789 5789 5788 5789 5794 5797 5796 5796 5797 5798 5797 5796 5797 5799 5800 5801 5802 5803 5803 5804 5806 5807 5807 5808 5809 5808 5809 5810 5810 5810 5811 5810 5810 5809 5809 5808 5806 5806 5804 5803 5804 5804 5805 5806 5806 5806 5807 5806 5806 5806 5806 5805 5805 5804 5804 5804 5804 5806 5807 5807 5807 5806 5806 5807 5808 5809 5809 5809 5809 5809 5809 5808 5809 5808 5807 5807 5807 5808 5808 5808 5807 5807 5807 5808 5809 5809 5810
5773 5775 5778 5781 5783 5785 5788 5788 5786 5784 5785 5786 5787 5790 5794 5794 5792 5793 5795 5796 5795 5794 5795 5797 5798 5798 5799 5800 5801 5802 5804 5804 5805 5806 5807 5807 5807 5807 5808 5809 5808 5808 5808 5807 5807 5806 5803 5803 5804 5803 5802 5802 5803 5803 5804 5804 5804 5804 5804 5804 5804 5804 5803 5802 5803 5804 5804 5805 5805 5806 5805 5804 5806 5807 5807 5807 5807 5807 5807 5807 5807 5807 5807 5807 5806 5805 5805 5806 5806 5806 5805 5805 5806 5806 5807 5808 5808
5772 5773 5776 5779 5779 5782 5785 5784 5781 5780 5782 5783 5786 5791 5791 5788 5789 5791 5793 5794 5793 5793 5793 5794 5795 5795 5796 5798 5800 5801 5802 5803 5803 5804 5804 5805 5805 5805 5806 5806 5806 5806 5806 5806 5806 5804 5801 5801 5802 5802 5800 5800 5800 5801 5801 5801 5802 5802 5803 5802 5802 5802 5801 5802 5802 5803 5802 5802 5803 5806 5805 5804 5805 5805 5805 5806 5805 5805 5805 5805 5805 5806 5805 5805 5804 5803 5803 5804 5804 5804 5804 5804 5804 5805 5806 5806 5807
5769 5771 5774 5776 5777 5776 5778 5778 5776 5776 5779 5783 5787 5789 5787 5786 5789 5790 5791 5791 5791 5791 5791 5791 5792 5793 5795 5796 5798 5800 5801 5801 5802 5802 5803 5804 5804 5803 5803 5804 5804 5804 5804 5804 5804 5803 5799 5798 5799 5800 5798 5798 5798 5798 5798 5799 5800 5801 5801 5801 5801 5800 5800 5801 5801 5801 5801 5801 5802 5804 5804 5804 5803 5803 5804 5804 5803 5803 5803 5803 5803 5804 5803 5803 5802 5801 5802 5803 5803 5803 5802 5802 5802 5803 5805 5805 5805
5767 5769 5772 5773 5774 5773 5774 5775 5773 5773 5780 5783 5784 5785 5784 5786 5789 5788 5789 5789 5788 5789 5789 5789 5791 5793 5794 5794 5796 5798 5799 5800 5800 5800 5800 5801 5801 5802 5801 5801 5802 5802 5802 5801 5803 5802 5798 5797 5798 5798 5796 5796 5796 5796 5796 5798 5799 5799 5799 5799 5799 5799 5800 5800 5800 5800 5801 5800 5800 5802 5802 5802 5802 5802 5802 5802 5801 5800 5801 5801 5801 5801 5801 5801 5800 5800 5801 5801 5801 5800 5801 5800 5800 5801 5803 5804 5804
5764 5767 5769 5770 5771 5772 5772 5773 5771 5772 5778 5780 5781 5782 5783 5786 5786 5785 5788 5787 5786 5787 5787 5789 5791 5792 5792 5793 5794 5795 5797 5798 5797 5798 5798 5799 5800 5800 5800 5799 5800 5800 5800 5799 5800 5800 5797 5796 5797 5796 5794 5794 5795 5795 5796 5797 5798 5798 5797 5797 5797 5798 5799 5800 5800 5800 5800 5799 5799 5799 5799 5800 5801 5801 5800 5800 5799 5799 5799 5799 5799 5800 5799 5799 5799 5799 5800 5799 5799 5799 5799 5800 5800 5800 5802 5803 5802
5762 5765 5767 5768 5769 5769 5769 5769 5769 5771 5776 5777 5779 5781 5782 5783 5782 5783 5785 5786 5785 5785 5785 5787 5788 5789 5790 5791 5792 5792 5794 5795 5795 5795 5796 5797 5798 5799 5798 5798 5798 5798 5798 5797 5798 5797 5796 5796 5795 5794 5793 5792 5794 5794 5795 5796 5795 5795 5795 5795 5796 5798 5799 5799 5799 5798 5798 5797 5796 5796 5797 5799 5799 5799 5798 5798 5797 5797 5798 5798 5798 5799 5798 5797 5797 5797 5798 5798 5798 5798 5798 5799 5800 5800 5800 5801 5801
5761 5763 5764 5764 5765 5766 5766 5767 5768 5770 5773 5775 5777 5778 5780 5781 5780 5782 5784 5785 5785 5783 5783 5785 5785 5786 5787 5788 5789 5790 5791 5793 5794 5793 5794 5796 5796 5797 5797 5797 5796 5796 5796 5796 5796 5794 5794 5795 5794 5792 5791 5791 5793 5792 5793 5794 5793 5793 5794 5794 5796 5798 5798 5798 5797 5796 5796 5796 5796 5796 5797 5798 5798 5797 5797 5797 5796 5795 5796 5796 5797 5798 5797 5796 5796 5796 5796 5796 5797 5797 5798 5799 5800 5799 5799 5800 5800
5759 5760 5760 5761 5762 5763 5765 5765 5766 5769 5770 5773 5775 5776 5777 5778 5778 5781 5784 5784 5783 5783 5783 5783 5784 5785 5786 5787 5787 5788 5790 5792 5792 5792 5793 5793 5794 5795 5795 5795 5795 5795 5794 5794 5794 5792 5791 5793 5792 5789 5788 5788 5789 5789 5789 5791 5792 5792 5793 5794 5795 5796 5797 5797 5796 5795 5795 5796 5796 5797 5798 5798 5796 5796 5796 5796 5795 5794 5794 5795 5795 5796 5796 5795 5795 5795 5795 5796 5797 5797 5798 5799 5800 5799 5798 5799 5799
5756 5756 5757 5760 5761 5761 5763 5763 5765 5767 5768 5770 5773 5773 5774 5775 5777 5780 5782 5782 5780 5781 5783 5782 5783 5784 5785 5786 5786 5788 5789 5789 5790 5790 5790 5791 5793 5794 5794 5794 5794 5794 5793 5792 5792 5790 5788 5790 5790 5788 5785 5785 5785 5784 5785 5788 5790 5792 5792 5793 5794 5794 5795 5795 5794 5794 5795 5797 5797 5797 5797 5796 5795 5794 5795 5795 5794 5794 5794 5794 5794 5795 5795 5795 5795 5795 5795 5796 5796 5797 5798 5799 5800 5799 5798 5798 5798
5753 5754 5756 5757 5758 5759 5761 5762 5764 5766 5766 5768 5770 5771 5772 5774 5777 5778 5779 5780 5778 5780 5782 5782 5783 5783 5783 5784 5784 5785 5787 5787 5787 5788 5788 5790 5791 5792 5793 5793 5793 5793 5792 5790 5790 5788 5785 5786 5788 5787 5785 5786 5785 5781 5782 5786 5788 5790 5790 5790 5792 5792 5793 5794 5794 5795 5796 5796 5797 5797 5796 5795 5794 5794 5795 5795 5794 5794 5795 5795 5794 5794 5794 5794 5794 5794 5795 5796 5796 5797 5798 5799 5800 5799 5797 5797 5797
5751 5752 5753 5755 5755 5757 5760 5760 5762 5764 5764 5766 5767 5768 5771 5773 5775 5776 5777 5778 5776 5779 5781 5781 5782 5781 5781 5782 5782 5783 5784 5784 5785 5786 5788 5789 5790 5791 5792 5792 5792 5792 5790 5788 5787 5785 5781 5781 5785 5785 5783 5786 5786 5783 5782 5784 5786 5788 5788 5789 5790 5791 5793 5794 5794 5796 5796 5795 5795 5795 5795 5794 5794 5794 5794 5793 5793 5793 5794 5794 5793 5794 5794 5794 5793 5794 5794 5795 5796 5796 5797 5798 5799 5798 5797 5797 5796
5749 5749 5751 5752 5753 5755 5758 5758 5759 5761 5763 5764 5765 5766 5769 5771 5773 5774 5776 5775 5774 5777 5779 5779 5780 5780 5779 5781 5781 5781 5781 5782 5783 5785 5787 5788 5788 5789 5790 5791 5790 5789 5788 5786 5784 5782 5779 5778 5782 5783 5782 5783 5783 5783 5783 5783 5784 5786 5788 5789 5790 5792 5794 5795 5795 5795 5795 5794 5793 5793 5793 5794 5794 5794 5794 5792 5792 5792 5793 5793 5793 5794 5794 5794 5793 5793 5793 5794 5795 5796 5796 5797 5797 5798 5797 5796 5795
5746 5747 5749 5750 5751 5753 5756 5757 5757 5759 5761 5761 5761 5764 5767 5769 5772 5773 5774 5774 5773 5775 5777 5777 5778 5778 5778 5779 5780 5780 5780 5781 5783 5784 5785 5786 5785 5785 5787 5787 5788 5787 5786 5783 5779 5778 5776 5776 5781 5783 5782 5782 5781 5782 5783 5782 5784 5786 5788 5789 5790 5792 5793 5794 5794 5794 5794 5794 5793 5793 5793 5793 5793 5793 5793 5792 5791 5792 5793 5793 5793 5793 5793 5792 5793 5792 5793 5793 5794 5795 5795 5796 5797 5798 5797 5796 5795
5743 5745 5746 5748 5749 5751 5753 5756 5757 5756 5758 5759 5758 5760 5765 5767 5770 5772 5773 5773 5772 5772 5774 5776 5775 5775 5775 5776 5778 5780 5780 5780 5781 5781 5781 5781 5781 5782 5784 5784 5785 5784 5781 5778 5776 5776 5777 5777 5780 5781 5781 5780 5779 5781 5782 5782 5783 5786 5787 5788 5789 5790 5790 5790 5791 5792 5794 5794 5793 5793 5792 5792 5791 5791 5791 5791 5791 5792 5793 5793 5792 5791 5791 5791 5792 5792 5792 5792 5793 5794 5795 5795 5797 5797 5797 5795 5795
5742 5743 5744 5746 5748 5749 5751 5755 5758 5755 5755 5758 5757 5757 5762 5766 5768 5771 5774 5774 5772 5769 5771 5774 5773 5774 5773 5772 5774 5777 5777 5777 5777 5777 5777 5778 5779 5780 5782 5782 5781 5778 5776 5777 5777 5778 5781 5781 5780 5780 5779 5778 5777 5778 5781 5781 5782 5784 5784 5784 5785 5786 5788 5789 5791 5792 5792 5791 5790 5790 5789 5789 5789 5789 5790 5791 5791 5792 5792 5792 5792 5791 5790 5790 5792 5792 5792 5792 5792 5794 5795 5795 5796 5797 5796 5795 5795
5740 5742 5743 5744 5746 5747 5750 5753 5757 5756 5754 5756 5757 5756 5760 5765 5765 5768 5772 5772 5770 5768 5769 5771 5771 5771 5772 5770 5770 5772 5774 5772 5772 5773 5775 5776 5779 5780 5780 5778 5775 5774 5775 5778 5780 5782 5783 5781 5778 5777 5776 5775 5774 5776 5779 5779 5780 5782 5782 5782 5783 5785 5788 5789 5790 5789 5788 5787 5787 5787 5787 5788 5788 5788 5789 5790 5791 5791 5792 5792 5792 5790 5789 5790 5791 5791 5791 5792 5792 5793 5794 5795 5795 5795 5795 5794 5795
5737 5740 5742 5743 5744 5745 5748 5752 5755 5756 5754 5754 5755 5756 5759 5762 5763 5766 5769 5768 5767 5767 5767 5768 5769 5769 5771 5769 5767 5770 5771 5770 5770 5771 5773 5775 5777 5778 5777 5773 5771 5773 5776 5778 5782 5783 5780 5777 5776 5775 5774 5774 5773 5774 5776 5777 5778 5780 5782 5784 5785 5786 5788 5788 5788 5787 5786 5786 5785 5786 5787 5788 5788 5787 5787 5789 5790 5791 5791 5791 5790 5789 5788 5789 5790 5790 5790 5791 5792 5793 5793 5794 5794 5794 5794 5794 5795
5732 5735 5738 5742 5743 5744 5747 5751 5755 5754 5752 5753 5753 5754 5757 5759 5761 5763 5766 5766 5765 5765 5766 5766 5767 5768 5768 5766 5766 5769 5770 5768 5768 5769 5771 5773 5773 5773 5771 5770 5771 5774 5777 5779 5781 5780 5776 5775 5776 5777 5775 5775 5773 5773 5774 5774 5776 5779 5780 5783 5784 5785 5786 5786 5786 5786 5786 5786 5786 5786 5787 5787 5787 5787 5787 5788 5788 5789 5790 5790 5789 5788 5788 5789 5790 5789 5789 5790 5791 5792 5792 5792 5792 5793 5794 5794 5795
5729 5731 5734 5738 5742 5745 5746 5749 5753 5752 5749 5752 5753 5753 5754 5757 5759 5761 5763 5764 5764 5762 5763 5765 5765 5765 5765 5764 5764 5767 5768 5767 5766 5767 5768 5768 5768 5768 5769 5770 5771 5774 5777 5779 5779 5778 5778 5778 5778 5779 5778 5777 5776 5776 5775 5773 5774 5777 5777 5779 5782 5783 5784 5785 5786 5786 5786 5786 5786 5786 5787 5787 5786 5786 5787 5787 5787 5788 5788 5788 5788 5788 5787 5788 5788 5789 5789 5789 5790 5790 5791 5790 5791 5792 5793 5792 5793
5727 5730 5732 5735 5739 5743 5745 5748 5752 5751 5745 5747 5752 5752 5753 5754 5756 5758 5760 5762 5763 5760 5760 5763 5763 5763 5763 5762 5761 5764 5766 5765 5764 5764 5763 5763 5765 5767 5770 5770 5770 5771 5774 5775 5775 5776 5778 5778 5779 5780 5780 5780 5779 5778 5777 5775 5773 5774 5776 5778 5780 5782 5783 5784 5785 5785 5785 5786 5786 5786 5786 5786 5786 5786 5785 5785 5785 5786 5786 5786 5786 5786 5787 5787 5787 5788 5789 5789 5789 5789 5789 5789 5789 5790 5790 5790 5791
5725 5728 5730 5732 5736 5741 5745 5747 5748 5747 5742 5743 5749 5750 5750 5752 5753 5756 5757 5757 5761 5760 5758 5760 5762 5761 5760 5759 5758 5761 5765 5764 5761 5759 5758 5760 5764 5767 5768 5767 5766 5768 5770 5771 5772 5773 5775 5775 5776 5777 5778 5777 5777 5777 5776 5775 5774 5775 5777 5779 5780 5782 5783 5784 5784 5784 5784 5785 5785 5785 5785 5785 5785 5784 5784 5783 5783 5784 5784 5785 5786 5786 5786 5787 5787 5787 5788 5789 5788 5788 5788 5788 5788 5788 5788 5789 5790
5723 5725 5727 5730 5733 5737 5743 5745 5744 5743 5741 5742 5745 5745 5746 5749 5750 5754 5755 5754 5757 5759 5756 5757 5760 5760 5758 5755 5756 5758 5762 5761 5756 5754 5755 5759 5762 5765 5765 5763 5763 5767 5768 5769 5770 5771 5772 5772 5773 5774 5775 5775 5776 5776 5775 5776 5777 5778 5779 5780 5781 5782 5783 5783 5784 5784 5784 5784 5784 5784 5784 5784 5783 5783 5782 5782 5782 5783 5783 5784 5785 5786 5786 5786 5786 5786 5787 5787 5788 5787 5787 5786 5786 5787 5787 5787 5787
5720 5723 5726 5729 5731 5732 5736 5741 5741 5740 5740 5740 5740 5741 5743 5746 5747 5751 5752 5752 5754 5755 5754 5756 5758 5757 5754 5752 5754 5757 5758 5756 5752 5751 5754 5757 5760 5763 5763 5760 5761 5764 5766 5767 5768 5769 5770 5771 5772 5772 5774 5775 5776 5777 5777 5778 5779 5779 5780 5780 5781 5782 5782 5783 5783 5783 5783 5783 5783 5783 5783 5782 5782 5782 5782 5781 5781 5782 5783 5783 5784 5785 5785 5785 5785 5786 5786 5786 5786 5786 5786 5785 5785 5785 5785 5785 5785
5718 5721 5724 5726 5729 5730 5731 5737 5739 5738 5737 5738 5737 5738 5741 5743 5746 5748 5749 5750 5751 5751 5751 5754 5755 5753 5750 5749 5753 5756 5754 5751 5750 5751 5753 5757 5759 5761 5760 5759 5760 5762 5764 5766 5767 5768 5769 5769 5770 5770 5772 5774 5775 5777 5778 5779 5779 5780 5780 5780 5781 5781 5782 5782 5782 5782 5781 5781 5782 5782 5782 5782 5782 5781 5781 5781 5781 5781 5782 5782 5783 5784 5784 5784 5783 5784 5784 5784 5784 5784 5784 5784 5784 5784 5783 5783 5784
5717 5720 5722 5724 5726 5729 5729 5732 5736 5735 5734 5735 5735 5737 5739 5740 5745 5747 5747 5748 5748 5747 5749 5751 5751 5749 5748 5748 5751 5751 5748 5746 5748 5749 5751 5755 5756 5757 5758 5758 5758 5760 5763 5765 5766 5767 5768 5768 5769 5769 5771 5773 5774 5775 5777 5778 5779 5780 5780 5780 5781 5781 5781 5781 5780 5780 5780 5780 5781 5781 5781 5781 5781 5781 5780 5781 5781 5781 5781 5782 5782 5782 5783 5783 5783 5782 5782 5781 5781 5781 5782 5782 5782 5782 5782 5782 5783
5716 5717 5719 5722 5724 5726 5728 5729 5732 5732 5730 5732 5733 5735 5736 5738 5742 5744 5744 5745 5746 5746 5747 5748 5747 5745 5745 5747 5748 5744 5742 5744 5746 5747 5750 5753 5754 5755 5756 5756 5757 5758 5760 5762 5764 5765 5766 5767 5768 5768 5770 5771 5772 5773 5773 5775 5777 5778 5779 5780 5780 5780 5779 5779 5779 5779 5779 5780 5780 5781 5781 5781 5780 5780 5780 5780 5780 5781 5781 5781 5781 5781 5782 5782 5782 5782 5781 5780 5780 5779 5779 5780 5780 5780 5781 5781 5781
5715 5716 5718 5721 5723 5724 5725 5726 5729 5729 5728 5729 5732 5733 5734 5736 5739 5740 5741 5743 5745 5745 5745 5744 5744 5743 5742 5745 5744 5738 5738 5742 5743 5745 5749 5751 5753 5754 5753 5755 5757 5758 5759 5761 5762 5763 5765 5766 5767 5767 5769 5769 5769 5770 5770 5772 5774 5776 5777 5778 5778 5777 5777 5778 5778 5778 5778 5778 5779 5780 5780 5780 5779 5779 5779 5779 5780 5780 5780 5780 5781 5781 5780 5780 5781 5781 5780 5780 5779 5778 5778 5778 5778 5778 5779 5779 5779
5712 5714 5716 5718 5721 5721 5722 5724 5726 5726 5726 5728 5731 5732 5733 5734 5736 5737 5739 5740 5741 5743 5742 5741 5742 5740 5738 5741 5740 5734 5736 5740 5741 5744 5747 5749 5750 5751 5751 5754 5756 5757 5758 5759 5761 5762 5763 5764 5765 5766 5767 5767 5767 5767 5768 5770 5772 5774 5775 5775 5775 5775 5775 5776 5776 5776 5776 5777 5777 5778 5779 5779 5778 5778 5778 5778 5779 5779 5779 5779 5779 5779 5779 5779 5779 5779 5779 5778 5778 5777 5777 5776 5776 5776 5777 5777 5777
5709 5712 5713 5716 5719 5719 5720 5722 5722 5722 5724 5727 5730 5731 5731 5732 5733 5735 5737 5736 5737 5739 5739 5738 5739 5738 5736 5737 5737 5735 5736 5738 5740 5743 5745 5746 5748 5749 5751 5752 5752 5753 5755 5757 5759 5761 5762 5763 5764 5765 5766 5766 5766 5766 5767 5768 5770 5771 5772 5772 5773 5773 5773 5773 5774 5775 5775 5775 5776 5777 5777 5777 5777 5777 5777 5777 5777 5778 5778 5778 5778 5778 5777 5777 5777 5777 5777 5777 5776 5776 5776 5776 5775 5775 5775 5775 5776
5708 5711 5712 5714 5716 5717 5718 5719 5720 5721 5724 5726 5728 5729 5729 5729 5730 5731 5732 5732 5734 5735 5734 5735 5738 5738 5737 5734 5733 5735 5736 5736 5739 5742 5743 5745 5747 5749 5750 5750 5750 5750 5753 5756 5758 5759 5760 5761 5762 5763 5764 5765 5765 5764 5765 5766 5767 5768 5769 5770 5771 5771 5771 5771 5772 5773 5773 5774 5775 5776 5776 5776 5776 5776 5776 5776 5776 5776 5777 5776 5776 5776 5776 5775 5775 5775 5775 5775 5775 5775 5775 5775 5774 5774 5774 5774 5774
5707 5710 5711 5712 5713 5714 5716 5718 5719 5721 5723 5725 5726 5726 5726 5726 5725 5727 5729 5732 5735 5734 5732 5734 5737 5737 5736 5731 5727 5730 5734 5735 5739 5742 5743 5745 5747 5748 5747 5747 5747 5748 5750 5753 5756 5757 5758 5759 5760 5761 5762 5763 5763 5763 5764 5765 5765 5766 5766 5768 5769 5770 5770 5771 5771 5771 5772 5773 5774 5774 5775 5775 5775 5775 5775 5775 5775 5775 5775 5775 5774 5774 5774 5774 5773 5773 5773 5773 5773 5773 5773 5773 5773 5772 5772 5773 5773
5706 5708 5709 5710 5711 5713 5714 5716 5717 5719 5720 5721 5722 5722 5723 5723 5722 5724 5729 5731 5732 5732 5732 5733 5732 5732 5732 5729 5726 5728 5731 5734 5738 5741 5742 5743 5744 5745 5744 5743 5744 5744 5747 5750 5752 5754 5755 5757 5758 5759 5760 5761 5761 5762 5763 5763 5764 5764 5765 5767 5768 5769 5769 5770 5770 5770 5771 5772 5772 5773 5773 5773 5773 5773 5773 5773 5773 5773 5773 5773 5772 5772 5772 5772 5772 5772 5771 5771 5771 5771 5771 5771 5771 5771 5771 5771 5771
5705 5707 5708 5708 5710 5712 5713 5714 5715 5717 5717 5718 5719 5719 5720 5721 5721 5723 5726 5726 5728 5731 5732 5729 5728 5727 5728 5729 5728 5727 5728 5731 5735 5737 5739 5740 5742 5742 5743 5742 5742 5742 5744 5747 5750 5752 5753 5754 5756 5756 5757 5758 5759 5760 5761 5761 5762 5763 5764 5765 5767 5768 5768 5769 5769 5769 5770 5770 5771 5771 5771 5771 5772 5772 5771 5771 5771 5771 5771 5771 5771 5770 5769 5770 5770 5770 5769 5769 5769 5768 5769 5769 5769 5769 5769 5770 5770
5703 5705 5707 5709 5710 5711 5711 5712 5713 5714 5716 5716 5717 5717 5718 5720 5721 5721 5722 5722 5726 5729 5728 5727 5727 5726 5726 5728 5728 5726 5726 5728 5731 5734 5736 5738 5740 5741 5742 5743 5742 5740 5741 5744 5747 5749 5750 5751 5752 5753 5754 5755 5756 5757 5758 5759 5760 5761 5762 5763 5764 5765 5766 5767 5767 5767 5768 5768 5769 5769 5769 5770 5770 5770 5770 5770 5770 5769 5769 5769 5769 5769 5768 5768 5768 5768 5768 5767 5767 5767 5767 5767 5767 5767 5768 5768 5768
5702 5703 5704 5706 5708 5709 5709 5710 5710 5712 5714 5715 5716 5716 5717 5718 5718 5718 5718 5718 5722 5724 5724 5726 5727 5726 5726 5727 5727 5726 5726 5728 5730 5733 5734 5736 5739 5740 5741 5742 5741 5740 5739 5741 5744 5746 5747 5749 5750 5751 5752 5753 5754 5755 5755 5756 5757 5758 5759 5760 5761 5762 5763 5764 5764 5765 5766 5766 5767 5767 5768 5768 5768 5768 5769 5768 5768 5768 5768 5768 5768 5767 5767 5766 5766 5767 5767 5766 5766 5766 5765 5765 5766 5766 5766 5767 5767
5699 5700 5701 5703 5704 5705 5706 5707 5709 5711 5712 5713 5716 5715 5714 5714 5715 5715 5714 5716 5720 5720 5719 5722 5724 5724 5725 5726 5726 5726 5726 5727 5729 5732 5733 5733 5735 5736 5736 5736 5735 5736 5736 5737 5740 5742 5744 5746 5747 5748 5750 5751 5752 5752 5753 5753 5754 5755 5757 5757 5758 5758 5759 5760 5762 5763 5764 5765 5765 5765 5766 5766 5767 5767 5767 5767 5767 5766 5766 5766 5766 5766 5765 5765 5764 5764 5764 5764 5764 5764 5764 5764 5764 5765 5765 5765 5766
5696 5697 5699 5701 5702 5703 5704 5705 5707 5709 5710 5711 5714 5712 5711 5712 5713 5713 5714 5716 5718 5716 5715 5716 5718 5720 5722 5724 5725 5726 5725 5725 5726 5729 5729 5727 5727 5727 5727 5728 5729 5731 5733 5735 5737 5740 5742 5743 5744 5746 5748 5749 5749 5749 5750 5750 5751 5752 5754 5755 5755 5755 5756 5757 5759 5761 5762 5763 5763 5763 5764 5764 5764 5765 5765 5765 5765 5764 5764 5764 5764 5764 5764 5763 5763 5762 5762 5762 5762 5762 5762 5762 5763 5763 5764 5764 5764
5695 5696 5698 5699 5700 5702 5703 5703 5704 5706 5708 5709 5710 5709 5708 5709 5710 5711 5712 5714 5714 5713 5713 5713 5713 5715 5716 5718 5721 5723 5724 5724 5724 5724 5721 5719 5721 5723 5724 5726 5728 5730 5732 5733 5735 5737 5739 5740 5742 5743 5745 5745 5746 5746 5747 5748 5748 5749 5751 5752 5752 5753 5753 5754 5756 5758 5759 5760 5760 5761 5761 5762 5762 5762 5762 5762 5762 5762 5762 5763 5763 5762 5762 5762 5761 5761 5761 5760 5760 5760 5760 5761 5761 5761 5762 5762 5762